This demonstration page uses our WeatherBlox Daily Observations layout. Learn more.

Left ArrowRight Arrow

38.80484, -77.04692

Hourly Observations for July 12, 2018

Temp ( °F °C ) Dew Point ( °F °C ) Humidity (%) Winds ( mph kmh ) Pressure ( in mb ) Visibility ( mi km ) Precip ( " mm )
12:52 am 00:52 Mostly Cloudy 79 26.1 59 15 50 50 NE 13 20 30.05 1018 10 16 0.00 0.00
1:52 am 01:52 Mostly Cloudy 78 25.6 57 13.9 48 48 NNE 12 19 30.07 1018 10 16 0.00 0.00
2:52 am 02:52 Mostly Cloudy 77 25 55 12.8 47 47 NNE 12 19 30.09 1019 10 16 0.00 0.00
3:52 am 03:52 Partly Cloudy 76 24.4 54 12.2 47 47 NNE 12 19 30.10 1019 10 16 0.00 0.00
4:52 am 04:52 Partly Cloudy 75 23.9 52 11.1 45 45 NNE 10 17 30.10 1019 10 16 0.00 0.00
5:52 am 05:52 Mostly Clear 73 22.8 52 11.1 48 48 NNE 12 19 30.11 1020 10 16 0.00 0.00
6:52 am 06:52 Mostly Sunny 74 23.3 52 11.1 46 46 NE 9 15 30.12 1020 10 16 0.00 0.00
7:52 am 07:52 Mostly Sunny 75 23.9 54 12.2 48 48 NNE 9 15 30.13 1020 10 16 0.00 0.00
8:27 am 08:27 Mostly Cloudy 77 25 55 12.8 47 47 NE 9 15 30.15 1021 10 16 0.00 0.00
8:44 am 08:44 Partly Cloudy 78 25.6 56 13.3 47 47 NNE 8 13 30.15 1021 10 16 0.00 0.00
8:52 am 08:52 Partly Cloudy 78 25.6 56 13.3 47 47 NNE 8 13 30.14 1021 10 16 0.00 0.00
9:52 am 09:52 Mostly Sunny 80 26.7 58 14.4 47 47 N 5 7 30.14 1021 10 16 0.00 0.00
10:52 am 10:52 Sunny 82 27.8 61 16.1 49 49 Calm 30.16 1021 10 16 0.00 0.00
11:52 am 11:52 Mostly Sunny 85 29.4 61 16.1 45 45 ENE 3 6 30.16 1021 10 16 0.00 0.00
12:52 pm 12:52 Partly Cloudy 88 31.1 58 14.4 36 36 ENE 9 15 30.16 1021 10 16 0.00 0.00
1:52 pm 13:52 Mostly Cloudy 89 31.7 57 13.9 34 34 NE 8 13 30.15 1021 10 16 0.00 0.00
2:52 pm 14:52 Partly Cloudy 89 31.7 56 13.3 33 33 Calm 30.14 1021 10 16 0.00 0.00
3:52 pm 15:52 Partly Cloudy 90 32.2 56 13.3 32 32 NNE 5 7 30.13 1020 10 16 0.00 0.00
4:52 pm 16:52 Partly Cloudy 91 32.8 55 12.8 30 30 NE 7 11 30.13 1020 10 16 0.00 0.00
5:52 pm 17:52 Mostly Sunny 86 30 65 18.3 49 49 ESE 13 20 30.12 1020 10 16 0.00 0.00
6:52 pm 18:52 Partly Cloudy 84 28.9 64 17.8 51 51 ESE 13 20 30.14 1021 10 16 0.00 0.00
7:52 pm 19:52 Partly Cloudy 82 27.8 64 17.8 55 55 SE 12 19 30.16 1021 10 16 0.00 0.00
8:52 pm 20:52 Mostly Clear 80 26.7 63 17.2 56 56 ESE 8 13 30.18 1022 10 16 0.00 0.00
9:52 pm 21:52 Mostly Clear 78 25.6 64 17.8 62 62 SSE 6 9 30.20 1023 10 16 0.00 0.00
10:52 pm 22:52 Clear 76 24.4 66 18.9 72 72 SE 6 9 30.21 1023 10 16 0.00 0.00
11:52 pm 23:52 Clear 76 24.4 67 19.4 74 74 SE 5 7 30.21 1023 10 16 0.00 0.00

Powered by AerisWeather